Location: Sungai Bunut
(2.6333°N, 113.7333°E)
Time: 21:09:42
(UTC+00:00)

Vanguard 3 - Visible Passes

Search period start: 06 December 2023 00:00
Search period end: 16 December 2023 00:00
Orbit: 507 x 3241 km, 33.3° (Epoch: 06 December)

Date Brightness Start Highest point End Pass type
(mag) Time Alt. Az. Time Alt. Az. Time Alt. Az.
06 Dec 10.0 11:19:32 10° WSW 11:38:51 62° NW 11:48:56 23° NE visible
06 Dec 10.5 13:43:29 10° WNW 13:53:16 21° NW 13:53:16 21° NW visible
06 Dec 8.2 20:39:20 18° NNE 20:39:35 18° NNE 20:42:18 10° E visible
07 Dec 10.0 12:18:40 10° W 12:34:59 37° NW 12:40:51 28° N visible
07 Dec 6.2 21:31:21 16° NW 21:34:10 87° NE 21:38:27 10° SE visible
08 Dec 10.2 10:56:06 10° WSW 11:15:29 59° NW 11:28:25 15° NE visible
08 Dec 10.5 13:20:22 10° WNW 13:31:29 21° NNW 13:32:44 21° NNW visible
08 Dec 8.4 20:19:00 20° ENE 20:19:00 20° ENE 20:20:52 10° E visible
09 Dec 10.3 11:55:22 10° W 12:11:57 36° NW 12:20:17 21° NNE visible
09 Dec 6.2 21:11:00 34° WNW 21:12:26 68° SW 21:16:21 10° SE visible
10 Dec 10.4 10:32:48 10° WSW 10:52:02 55° NW 11:07:14 10° NE visible
10 Dec 10.5 12:57:16 10° WNW 13:08:53 21° NNW 13:12:08 19° NNW visible
10 Dec 9.1 19:58:39 15° E 19:58:39 15° E 19:59:23 10° E visible
11 Dec 10.5 11:32:11 10° W 11:48:52 34° NNW 11:59:38 16° NNE visible
11 Dec 11.0 14:01:54 10° NW 14:03:57 11° NNW 14:03:57 11° NNW visible
11 Dec 6.5 20:50:37 48° SW 20:50:40 48° SW 20:54:17 10° SE visible
12 Dec 10.6 10:09:41 10° WSW 10:28:32 52° NW 10:44:35 10° NE visible
12 Dec 10.6 12:34:11 10° WNW 12:46:16 21° NNW 12:51:25 18° N visible
12 Dec 8.6 21:44:20 10° SW 21:45:26 11° SSW 21:46:33 10° SSW visible
13 Dec 10.7 11:09:09 10° W 11:25:45 33° NNW 11:38:52 11° NNE visible
13 Dec 10.9 13:38:16 10° NW 13:43:12 13° NNW 13:43:12 13° NNW visible
13 Dec 7.8 20:30:09 27° S 20:30:09 27° S 20:32:16 10° SSE visible
14 Dec 10.6 12:11:09 10° WNW 12:23:37 21° NNW 12:30:37 15° N visible
15 Dec 10.8 10:46:15 10° W 11:02:37 32° NNW 11:16:35 10° NNE visible
15 Dec 10.8 13:14:39 10° NW 13:22:10 14° NNW 13:22:21 14° NNW visible
15 Dec 9.0 20:09:37 14° SSE 20:09:37 14° SSE 20:10:16 10° SSE visible
